This demonstration page uses our WeatherBlox Daily Observations layout. Learn more.

Left ArrowRight Arrow

Hourly Observations for May 21, 2016

Temp ( °F °C ) Dew Point ( °F °C ) Humidity (%) Winds ( mph kmh ) Pressure ( in mb ) Visibility ( mi km ) Precip ( " mm )
12:51 am 00:51 Clear 72 22.2 27 -2.8 19 19 NNW 7 11 29.75 1008 10 16 0.00 0.00
1:51 am 01:51 Clear 69 20.6 32 0 25 25 Calm 29.76 1008 10 16 0.00 0.00
2:51 am 02:51 Clear 60 15.6 33 0.6 36 36 ESE 6 9 29.78 1008 10 16 0.00 0.00
3:51 am 03:51 Clear 62 16.7 27 -2.8 26 26 SE 7 11 29.78 1008 10 16 0.00 0.00
4:51 am 04:51 Clear 59 15 30 -1.1 33 33 ESE 6 9 29.80 1009 10 16 0.00 0.00
5:51 am 05:51 Sunny 58 14.4 33 0.6 39 39 ESE 5 7 29.81 1010 10 16 0.00 0.00
6:11 am 06:11 Mostly Sunny 62 16.7 34 1.1 35 35 NE 3 6 29.85 1011 10 16 0.00 0.00
6:51 am 06:51 Sunny 66 18.9 33 0.6 29 29 E 7 11 29.82 1010 10 16 0.00 0.00
7:51 am 07:51 Sunny 74 23.3 35 1.7 24 24 E 9 15 29.83 1010 10 16 0.00 0.00
8:51 am 08:51 Sunny 78 25.6 35 1.7 21 21 S 14 22 29.81 1009 10 16 0.00 0.00
9:51 am 09:51 Sunny 79 26.1 34 1.1 20 20 SW 8 13 29.81 1010 10 16 0.00 0.00
10:51 am 10:51 Sunny 81 27.2 29 -1.7 15 15 S 9 15 29.81 1010 10 16 0.00 0.00
11:51 am 11:51 Sunny 85 29.4 29 -1.7 13 13 WSW 12 19 29.79 1009 10 16 0.00 0.00
12:51 pm 12:51 Sunny 85 29.4 25 -3.9 11 11 Calm 29.76 1008 10 16 0.00 0.00
1:51 pm 13:51 Sunny 87 30.6 25 -3.9 10 10 VRB 7 11 29.74 1007 10 16 0.00 0.00
2:51 pm 14:51 Sunny 88 31.1 25 -3.9 10 10 W 6 9 29.75 1007 10 16 0.00 0.00
3:51 pm 15:51 Sunny 87 30.6 23 -5 9 9 VRB 3 6 29.73 1007 10 16 0.00 0.00
4:51 pm 16:51 Sunny 87 30.6 23 -5 9 9 W 7 11 29.73 1007 10 16 0.00 0.00
5:22 pm 17:22 Sunny 87 30.6 25 -3.9 10 10 NNW 16 26 29.62 1003 10 16 0.00 0.00
5:51 pm 17:51 Sunny 87 30.6 25 -3.9 10 10 SSW 12 19 29.73 1007 10 16 0.00 0.00
6:51 pm 18:51 Sunny 84 28.9 29 -1.7 13 13 SW 10 17 29.74 1007 10 16 0.00 0.00
7:51 pm 19:51 Clear 81 27.2 29 -1.7 15 15 WNW 10 17 29.74 1007 10 16 0.00 0.00
8:51 pm 20:51 Clear 76 24.4 26 -3.3 16 16 NW 10 17 29.77 1008 10 16 0.00 0.00
9:51 pm 21:51 Clear 75 23.9 29 -1.7 18 18 NW 14 22 29.79 1009 10 16 0.00 0.00
10:51 pm 22:51 Clear 72 22.2 29 -1.7 20 20 NW 10 17 29.81 1010 10 16 0.00 0.00
11:51 pm 23:51 Clear 69 20.6 28 -2.2 22 22 NW 14 22 29.81 1010 10 16 0.00 0.00

Powered by AerisWeather